Location: Newark
(46.7000°N, 60.6000°W)
Time: 21:26:15
(UTC+00:00)

Vanguard 1 Rocket - Pass Details

Date: 01 November 2020
Orbit: 656 x 4221 km, 34.3° (Epoch: 30 November)

Event Time Altitude Azimuth Distance (km) Brightness Sun altitude
Rises 12:00:50 0° 214° (SSW) 4,635 11.0 10.6°
Reaches altitude 10° 12:06:35 10° 187° (S) 2,941 10.5 11.4°
Maximum altitude 12:09:03 12° 165° (SSE) 2,516 10.7 11.7°
Drops below altitude 10° 12:11:11 10° 142° (SE) 2,460 11.6 12.0°
Sets 12:14:55 0° 110° (ESE) 3,105 11.7 12.5°
